Location: Unspecified
(20.0000°S, 0.0000°E)
Time: 22:18:56
(UTC+00:00)

KKS-1 - Pass Details

Date: 26 August 2019
Orbit: 638 x 649 km, 98.3° (Epoch: 21 September)

Event Time Altitude Azimuth Distance (km) Brightness Sun altitude
Rises 19:30:42 0° 343° (NNW) 2,948 ? -24.3°
Reaches altitude 10° 19:33:23 10° 326° (NW) 2,046 ? -24.9°
Maximum altitude 19:36:40 20° 278° (W) 1,489 ? -25.7°
Drops below altitude 10° 19:39:59 10° 230° (SW) 2,061 ? -26.4°
Sets 19:42:43 0° 214° (SSW) 2,977 ? -27.1°
